Terug naar catalogus

CZ-6A DEB

ActiefSSO
NORAD 56608·DEBRIS·🇨🇳 China

Gelanceerd Nov 11, 2022 vanaf Taiyuan Satellite Launch Center

Loading…

Volgende Passages (komende 24 uur)

TLE

VersSource: Space-Track

Epoch: Sep 14, 2026, 00:14 UTC

1 56608U 22151AEG 26257.00990830  .00001043  00000-0  54310-3 0  9991
2 56608  98.8901 280.5250 0033704  68.6200 291.8565 14.16529965175145

Volg CZ-6A DEB in realtime met AllMySat

Download on the App Store